timestamp,wind_dir_avg,wind_spd_avg,wind_spd_max_dir,wind_spd_gust,battery_voltage,lat,long
2022-04-09 00:04:00+00:00,353.0,1.06,70.0,2.92,12.49,47.59359,-54.27349
2022-04-09 00:14:01+00:00,300.0,1.01,285.0,1.82,12.41,47.59359,-54.27349
2022-04-09 00:24:01+00:00,63.0,3.91,68.0,4.64,12.41,47.59359,-54.27349
2022-04-09 00:34:01+00:00,66.0,4.35,73.0,5.66,12.41,47.59359,-54.27349
2022-04-09 00:44:01+00:00,70.0,4.33,76.0,6.36,12.41,47.59359,-54.27349
2022-04-09 00:54:01+00:00,301.0,1.37,311.0,2.36,12.41,47.59359,-54.27349
2022-04-09 01:04:01+00:00,62.0,2.88,62.0,4.03,12.41,47.59359,-54.27349
2022-04-09 01:14:01+00:00,281.0,0.38,99.0,2.84,12.33,47.59359,-54.27349
2022-04-09 01:24:01+00:00,188.0,0.65,249.0,2.34,12.33,47.59359,-54.27349
2022-04-09 01:34:01+00:00,289.0,0.82,86.0,2.59,12.33,47.59359,-54.27349
2022-04-09 01:44:01+00:00,117.0,3.86,113.0,7.78,12.33,47.59359,-54.27349
2022-04-09 01:54:01+00:00,181.0,1.93,121.0,3.77,12.33,47.59359,-54.27349
2022-04-09 02:04:01+00:00,135.0,4.4,139.0,4.97,12.33,47.59359,-54.27349
2022-04-09 02:14:01+00:00,146.0,3.83,134.0,5.03,12.25,47.59359,-54.27349
2022-04-09 02:24:01+00:00,201.0,3.26,200.0,3.69,12.25,47.59359,-54.27349
2022-04-09 02:34:01+00:00,187.0,1.39,119.0,3.81,12.25,47.59359,-54.27349
2022-04-09 02:44:01+00:00,223.0,1.95,220.0,2.56,12.25,47.59359,-54.27349
2022-04-09 02:54:01+00:00,277.0,2.11,267.0,2.64,12.25,47.59359,-54.27349
2022-04-09 03:04:01+00:00,210.0,1.67,117.0,3.66,12.25,47.59359,-54.27349
2022-04-09 03:14:01+00:00,180.0,1.91,121.0,3.91,12.25,47.59359,-54.27349
2022-04-09 03:24:01+00:00,208.0,2.64,214.0,3.01,12.25,47.59359,-54.27349
2022-04-09 03:34:01+00:00,242.0,1.98,264.0,2.61,12.25,47.59359,-54.27349
2022-04-09 03:44:01+00:00,272.0,1.34,82.0,2.39,12.25,47.59359,-54.27349
2022-04-09 03:54:01+00:00,255.0,1.62,245.0,2.38,12.25,47.59359,-54.27349
2022-04-09 04:04:01+00:00,250.0,1.81,251.0,2.56,12.25,47.59359,-54.27349
2022-04-09 04:14:01+00:00,141.0,2.71,125.0,4.01,12.17,47.59359,-54.27349
2022-04-09 04:24:01+00:00,123.0,3.68,107.0,6.45,12.17,47.59359,-54.27349
2022-04-09 04:34:01+00:00,138.0,2.5,126.0,3.83,12.17,47.59359,-54.27349
2022-04-09 04:44:01+00:00,212.0,3.01,217.0,3.51,12.17,47.59359,-54.27349
2022-04-09 04:54:01+00:00,213.0,2.83,220.0,3.29,12.17,47.59359,-54.27349
2022-04-09 05:04:01+00:00,137.0,2.36,122.0,3.79,12.17,47.59359,-54.27349
2022-04-09 05:14:00+00:00,164.0,2.14,123.0,3.73,12.17,47.59359,-54.27349
2022-04-09 05:24:00+00:00,130.0,3.12,123.0,4.31,12.17,47.59359,-54.27349
2022-04-09 05:34:00+00:00,167.0,1.86,121.0,3.44,12.17,47.59359,-54.27349
2022-04-09 05:44:00+00:00,208.0,2.45,204.0,3.39,12.17,47.59359,-54.27349
2022-04-09 05:54:00+00:00,182.0,2.31,127.0,4.07,12.17,47.59359,-54.27349
2022-04-09 06:04:00+00:00,151.0,4.2,142.0,5.21,12.17,47.59359,-54.27349
2022-04-09 06:14:00+00:00,196.0,2.93,200.0,3.66,12.09,47.59359,-54.27349
2022-04-09 06:24:00+00:00,142.0,2.6,126.0,3.89,12.09,47.59359,-54.27349
2022-04-09 06:34:00+00:00,201.0,2.42,214.0,3.08,12.09,47.59359,-54.27349
2022-04-09 06:44:00+00:00,191.0,2.59,142.0,3.62,12.09,47.59359,-54.27349
2022-04-09 06:54:00+00:00,171.0,1.9,116.0,3.47,12.09,47.59359,-54.27349
2022-04-09 07:04:00+00:00,243.0,0.35,94.0,3.27,12.09,47.59359,-54.27349
2022-04-09 07:14:01+00:00,217.0,2.04,214.0,2.67,12.09,47.59359,-54.27349
2022-04-09 07:24:01+00:00,198.0,2.58,129.0,3.48,12.09,47.59359,-54.27349
2022-04-09 07:34:01+00:00,191.0,2.12,125.0,3.92,12.09,47.59359,-54.27349
2022-04-09 07:44:01+00:00,130.0,2.89,127.0,4.22,12.09,47.59359,-54.27349
2022-04-09 07:54:01+00:00,131.0,3.29,129.0,4.44,12.09,47.59359,-54.27349
2022-04-09 08:04:01+00:00,125.0,4.07,125.0,4.99,12.09,47.59359,-54.27349
2022-04-09 08:14:00+00:00,134.0,2.94,124.0,3.99,12.01,47.59359,-54.27349
2022-04-09 08:24:00+00:00,209.0,2.58,203.0,3.1,12.01,47.59359,-54.27349
2022-04-09 08:34:00+00:00,167.0,2.45,124.0,3.98,12.01,47.59359,-54.27349
2022-04-09 08:44:00+00:00,122.0,4.12,121.0,4.89,12.01,47.59359,-54.27349
2022-04-09 08:54:00+00:00,141.0,3.44,132.0,4.9,12.01,47.59359,-54.27349
2022-04-09 09:04:00+00:00,199.0,3.64,144.0,4.86,12.01,47.59359,-54.27349
2022-04-09 09:14:01+00:00,166.0,1.95,116.0,3.76,12.01,47.59359,-54.27349
2022-04-09 09:24:01+00:00,124.0,2.76,122.0,5.06,12.01,47.59359,-54.27349
2022-04-09 09:34:01+00:00,125.0,3.74,119.0,7.52,12.01,47.59359,-54.27349
2022-04-09 09:44:01+00:00,119.0,4.85,110.0,6.36,12.01,47.59359,-54.27349
2022-04-09 09:54:01+00:00,158.0,5.06,148.0,5.98,12.01,47.59359,-54.27349
2022-04-09 10:04:01+00:00,144.0,4.3,142.0,5.46,12.01,47.59359,-54.27349
2022-04-09 10:14:01+00:00,190.0,4.6,197.0,5.43,12.09,47.59359,-54.27349
2022-04-09 10:24:01+00:00,139.0,5.64,143.0,6.55,12.09,47.59359,-54.27349
2022-04-09 10:34:01+00:00,138.0,6.1,133.0,6.91,12.09,47.59359,-54.27349
2022-04-09 10:44:01+00:00,143.0,4.95,148.0,7.04,12.09,47.59359,-54.27349
2022-04-09 10:54:01+00:00,145.0,5.89,148.0,6.52,12.09,47.59359,-54.27349
2022-04-09 11:04:01+00:00,170.0,4.77,162.0,5.7,12.09,47.59359,-54.27349
2022-04-09 11:14:00+00:00,167.0,4.72,148.0,5.75,13.21,47.59359,-54.27349
2022-04-09 11:24:00+00:00,159.0,5.64,152.0,6.68,13.21,47.59359,-54.27349
2022-04-09 11:34:00+00:00,175.0,6.06,178.0,7.23,13.21,47.59359,-54.27349
2022-04-09 11:44:00+00:00,141.0,5.83,143.0,6.63,13.21,47.59359,-54.27349
2022-04-09 11:54:00+00:00,140.0,6.55,136.0,8.13,13.21,47.59359,-54.27349
2022-04-09 12:04:00+00:00,172.0,6.5,156.0,8.11,13.21,47.59359,-54.27349
2022-04-09 12:14:01+00:00,174.0,6.09,154.0,7.65,13.44,47.59359,-54.27349
2022-04-09 12:24:01+00:00,142.0,6.31,146.0,7.32,13.44,47.59359,-54.27349
2022-04-09 12:34:01+00:00,171.0,5.99,157.0,6.88,13.44,47.59359,-54.27349
2022-04-09 12:44:01+00:00,151.0,5.2,142.0,6.05,13.44,47.59359,-54.27349
2022-04-09 12:54:01+00:00,155.0,5.03,147.0,6.08,13.44,47.59359,-54.27349
2022-04-09 13:04:01+00:00,184.0,5.63,197.0,6.87,13.44,47.59359,-54.27349
2022-04-09 13:14:00+00:00,185.0,5.24,192.0,6.1,13.6,47.59359,-54.27349
2022-04-09 13:24:00+00:00,193.0,5.67,196.0,6.57,13.6,47.59359,-54.27349
2022-04-09 13:34:00+00:00,186.0,4.78,145.0,5.67,13.6,47.59359,-54.27349
2022-04-09 13:44:00+00:00,195.0,5.68,196.0,6.69,13.6,47.59359,-54.27349
2022-04-09 13:54:00+00:00,195.0,5.8,196.0,6.93,13.6,47.59359,-54.27349
2022-04-09 14:04:00+00:00,136.0,6.35,122.0,10.07,13.6,47.59359,-54.27349
2022-04-09 14:14:00+00:00,138.0,5.93,121.0,9.8,13.6,47.59359,-54.27349
2022-04-09 14:24:00+00:00,149.0,5.11,136.0,5.87,13.6,47.59359,-54.27349
2022-04-09 14:34:00+00:00,136.0,7.61,124.0,10.61,13.6,47.59359,-54.27349
2022-04-09 14:44:00+00:00,135.0,8.28,124.0,12.15,13.6,47.59359,-54.27349
2022-04-09 14:54:00+00:00,161.0,6.04,151.0,7.63,13.6,47.59359,-54.27349
2022-04-09 15:04:00+00:00,170.0,4.9,159.0,6.31,13.6,47.59359,-54.27349
2022-04-09 15:14:01+00:00,171.0,4.9,144.0,6.07,13.53,47.59359,-54.27349
2022-04-09 15:24:01+00:00,167.0,6.78,166.0,8.05,13.53,47.59359,-54.27349
2022-04-09 15:34:01+00:00,154.0,7.55,127.0,11.19,13.53,47.59359,-54.27349
2022-04-09 15:44:01+00:00,168.0,6.9,166.0,7.6,13.53,47.59359,-54.27349
2022-04-09 15:54:01+00:00,169.0,6.68,178.0,8.05,13.53,47.59359,-54.27349
2022-04-09 16:04:01+00:00,173.0,6.28,175.0,7.3,13.53,47.59359,-54.27349
2022-04-09 16:14:00+00:00,164.0,6.84,168.0,7.81,13.76,47.59359,-54.27349
2022-04-09 16:24:00+00:00,175.0,6.88,174.0,7.44,13.76,47.59359,-54.27349
2022-04-09 16:34:00+00:00,176.0,6.46,179.0,7.49,13.76,47.59359,-54.27349
2022-04-09 16:44:00+00:00,170.0,4.91,173.0,5.17,13.76,47.59359,-54.27349
2022-04-09 16:54:00+00:00,170.0,6.3,168.0,7.16,13.76,47.59359,-54.27349
2022-04-09 17:04:00+00:00,177.0,7.1,181.0,7.89,13.76,47.59359,-54.27349
2022-04-09 17:14:01+00:00,169.0,6.63,168.0,8.03,13.68,47.59359,-54.27349
2022-04-09 17:24:01+00:00,172.0,5.54,173.0,6.34,13.68,47.59359,-54.27349
2022-04-09 17:34:01+00:00,172.0,6.67,175.0,7.39,13.68,47.59359,-54.27349
2022-04-09 17:44:01+00:00,164.0,7.28,163.0,8.73,13.68,47.59359,-54.27349
2022-04-09 17:54:01+00:00,169.0,7.54,172.0,9.29,13.68,47.59359,-54.27349
2022-04-09 18:04:01+00:00,164.0,7.42,164.0,8.68,13.68,47.59359,-54.27349
2022-04-09 18:14:01+00:00,162.0,9.63,158.0,11.32,13.44,47.59359,-54.27349
2022-04-09 18:24:01+00:00,162.0,10.38,171.0,11.44,13.44,47.59359,-54.27349
2022-04-09 18:34:01+00:00,162.0,9.37,160.0,11.21,13.44,47.59359,-54.27349
2022-04-09 18:44:01+00:00,166.0,8.22,164.0,9.21,13.44,47.59359,-54.27349
2022-04-09 18:54:01+00:00,183.0,7.43,182.0,9.91,13.44,47.59359,-54.27349
2022-04-09 19:04:01+00:00,167.0,7.4,172.0,8.77,13.44,47.59359,-54.27349
2022-04-09 19:14:01+00:00,152.0,7.36,151.0,8.88,12.73,47.59359,-54.27349
2022-04-09 19:24:01+00:00,150.0,10.17,148.0,11.45,12.73,47.59359,-54.27349
2022-04-09 19:34:01+00:00,146.0,11.55,147.0,13.6,12.73,47.59359,-54.27349
2022-04-09 19:44:01+00:00,153.0,12.09,154.0,13.97,12.73,47.59359,-54.27349
2022-04-09 19:54:01+00:00,147.0,11.56,149.0,12.89,12.73,47.59359,-54.27349
2022-04-09 20:04:01+00:00,143.0,9.88,143.0,10.97,12.73,47.59359,-54.27349
2022-04-09 20:14:01+00:00,146.0,9.17,144.0,10.35,12.81,47.59359,-54.27349
2022-04-09 20:24:01+00:00,152.0,6.68,153.0,8.09,12.81,47.59359,-54.27349
2022-04-09 20:34:01+00:00,160.0,4.79,148.0,5.67,12.81,47.59359,-54.27349
2022-04-09 20:44:01+00:00,157.0,3.11,158.0,3.12,12.81,47.59359,-54.27349
2022-04-09 20:54:01+00:00,177.0,5.31,176.0,6.36,12.81,47.59359,-54.27349
2022-04-09 21:04:01+00:00,186.0,5.27,182.0,6.02,12.81,47.59359,-54.27349
2022-04-09 21:14:00+00:00,173.0,5.91,176.0,6.24,12.41,47.59359,-54.27349
2022-04-09 21:24:00+00:00,171.0,4.47,169.0,5.15,12.41,47.59359,-54.27349
2022-04-09 21:34:00+00:00,149.0,8.04,145.0,8.74,12.41,47.59359,-54.27349
2022-04-09 21:44:00+00:00,146.0,5.32,129.0,6.49,12.41,47.59359,-54.27349
2022-04-09 21:54:00+00:00,145.0,6.64,137.0,7.57,12.41,47.59359,-54.27349
2022-04-09 22:04:00+00:00,162.0,4.93,164.0,5.42,12.41,47.59359,-54.27349
2022-04-09 22:14:00+00:00,315.0,0.01,181.0,0.0,12.33,47.59359,-54.27349
2022-04-09 22:24:00+00:00,169.0,5.61,167.0,6.47,12.33,47.59359,-54.27349
2022-04-09 22:34:00+00:00,159.0,5.37,157.0,6.02,12.33,47.59359,-54.27349
2022-04-09 22:44:00+00:00,153.0,2.89,123.0,4.21,12.33,47.59359,-54.27349
2022-04-09 22:54:00+00:00,148.0,2.12,148.0,2.29,12.33,47.59359,-54.27349
2022-04-09 23:04:00+00:00,143.0,2.76,141.0,3.57,12.33,47.59359,-54.27349
2022-04-09 23:14:01+00:00,315.0,0.01,160.0,0.0,12.25,47.59359,-54.27349
2022-04-09 23:24:01+00:00,133.0,2.03,129.0,2.66,12.25,47.59359,-54.27349
2022-04-09 23:34:01+00:00,138.0,4.71,142.0,6.54,12.25,47.59359,-54.27349
2022-04-09 23:44:01+00:00,146.0,5.05,142.0,6.09,12.25,47.59359,-54.27349
2022-04-09 23:54:01+00:00,196.0,2.97,216.0,4.15,12.25,47.59359,-54.27349
